Weather History for KP59 - July, 2013

Change the Weather History Date:

Monday, July 15, 2013

  Actual Average (WUND) Record (WUND)
Temperature  
Mean Temperature 67 °F -  
Max Temperature 80 °F - - (-1)
Min Temperature 55 °F - - (-1)
Cooling Degree Days 2    
Growing Degree Days 17 (Base 50)    
Moisture  
Dew Point 61 °F    
Average Humidity 77    
Maximum Humidity 100    
Minimum Humidity 58    
Precipitation  
Precipitation 0.00 in - - ()
Sea Level Pressure  
Sea Level Pressure 30.23 in    
Wind  
Wind Speed 3 mph (SE)    
Max Wind Speed 12 mph    
Max Gust Speed 18 mph    
Averages and records for this station are not official NWS values.
T = Trace of Precipitation, MM = Missing Value Source: NWS Daily Summary

Daily Weather History Graph

Daily Weather History Graph

Search for Another Location

Airport or City:

Trip Planner

Search our weather history database for the weather conditions in past years. The results will help you decide how hot, cold, wet, or windy it might be!

Date:

Astronomy

Jul. 15, 2013 Rise Set
Actual Time 6:10 AM EDT 9:44 PM EDT
Civil Twilight 5:31 AM EDT 10:22 PM EDT
Nautical Twilight 4:39 AM EDT 11:14 PM EDT
Astronomical Twilight 3:29 AM EDT 12:23 AM EDT
Moon 2:04 PM EDT (7/15) 12:24 AM EDT (7/15)
Length of Visible Light 16h 51m
Length of Day
15h 34m
Waxing Crescent, 45% of the Moon is Illuminated
Jul 15
Waxing Crescent
Jul 15
First Quarter
Jul 22
Full
Jul 29
Last Quarter
Aug 6
New

Hourly Weather History & Observations

Time (EDT) Temp. Dew Point Humidity Pressure Visibility Wind Dir Wind Speed Gust Speed Precip Events Conditions
12:51 AM 66.0 °F 61.0 °F 84% 30.19 in - Variable 3.5 mph - N/A   Unknown
1:51 AM 66.0 °F 60.1 °F 81% 30.19 in - WSW 6.9 mph - N/A   Unknown
2:51 AM 66.9 °F 59.0 °F 76% 30.19 in - SW 6.9 mph - N/A   Unknown
3:51 AM 66.0 °F 59.0 °F 78% 30.20 in - Calm Calm - N/A   Unknown
4:51 AM 59.0 °F 55.9 °F 90% 30.22 in - North 6.9 mph - N/A   Unknown
5:51 AM 55.9 °F 55.9 °F 100% 30.23 in - Calm Calm - N/A   Unknown
6:51 AM 55.9 °F 55.9 °F 100% 30.25 in - Calm Calm - N/A   Unknown
7:51 AM 57.0 °F 57.0 °F 100% 30.26 in - Calm Calm - N/A   Unknown
8:51 AM 63.0 °F 60.1 °F 90% 30.25 in - Calm Calm - N/A   Unknown
9:51 AM 63.0 °F 60.1 °F 90% 30.26 in - Calm Calm - N/A   Unknown
10:51 AM 68.0 °F 63.0 °F 84% 30.25 in - Variable 3.5 mph - N/A   Unknown
11:51 AM 71.1 °F 64.0 °F 78% 30.25 in - East 4.6 mph - N/A   Unknown
12:51 PM 73.9 °F 64.0 °F 71% 30.25 in - ESE 4.6 mph - N/A   Unknown
1:51 PM 77.0 °F 63.0 °F 62% 30.24 in - ESE 4.6 mph - N/A   Unknown
2:51 PM 75.9 °F 63.0 °F 64% 30.24 in - Variable 4.6 mph - N/A   Unknown
3:51 PM 78.1 °F 63.0 °F 60% 30.23 in - ESE 3.5 mph - N/A   Unknown
4:51 PM 78.1 °F 63.0 °F 60% 30.22 in - East 5.8 mph - N/A   Unknown
5:51 PM 77.0 °F 63.0 °F 62% 30.22 in - Calm Calm - N/A   Unknown
6:51 PM 79.0 °F 63.0 °F 58% 30.21 in - ESE 4.6 mph - N/A   Unknown
7:51 PM 78.1 °F 63.0 °F 60% 30.21 in - Calm Calm - N/A   Unknown
8:51 PM 73.9 °F 61.0 °F 64% 30.21 in - Calm Calm - N/A   Unknown
9:51 PM 69.1 °F 60.1 °F 73% 30.22 in - Calm Calm - N/A   Unknown
10:51 PM 68.0 °F 60.1 °F 76% 30.22 in - Variable 3.5 mph - N/A   Unknown
11:51 PM 66.0 °F 60.1 °F 81% 30.21 in - SW 11.5 mph 18.4 mph N/A   Unknown